Wind_Speed
34 34 35 36 35 36 37 37 37 36 36 36 35 34 33 33 32 33 33 33 32 32 33 33 34 34 35 36 37 37 38 39 39 39 40 40 40 41 41 42 43 44 44 44
34 34 35 36 36 36 37 36 36 36 35 35 36 35 35 34 33 33 33 33 33 33 33 33 33 34 35 36 36 37 37 38 38 39 39 40 40 41 42 43 44 44 44 43
32 33 34 35 34 35 36 35 35 35 34 34 35 35 35 35 34 33 33 33 32 33 33 33 33 34 35 35 36 37 37 38 38 38 38 39 40 40 41 42 43 43 42 42
31 32 34 32 33 34 35 36 36 35 35 35 36 35 35 35 35 34 33 32 32 33 33 33 33 33 34 34 35 36 36 37 37 38 38 39 39 40 40 41 41 41 41 41
30 31 32 32 32 32 33 34 36 36 35 35 35 35 35 35 35 35 34 34 33 33 33 33 33 33 33 34 35 35 36 36 36 37 37 38 38 38 39 39 39 39 40 40
28 29 30 30 31 32 32 33 34 36 35 35 35 35 34 35 36 35 35 34 34 33 33 33 32 33 33 33 34 35 35 35 36 36 36 36 36 37 38 39 39 38 38 38
26 27 28 29 29 30 32 31 32 34 34 34 35 34 33 34 34 34 34 34 34 33 33 33 33 33 33 33 33 33 33 34 35 35 36 36 36 36 37 36 36 36 36 36
25 25 26 26 27 27 28 29 30 31 32 33 33 33 32 32 33 33 33 33 33 33 33 33 32 32 32 32 32 32 32 33 33 34 34 35 35 35 35 35 34 34 34 34
23 24 24 24 25 26 26 27 28 29 29 31 31 32 32 32 32 33 33 32 32 32 32 32 32 32 32 32 31 31 32 32 33 33 33 33 34 34 34 34 33 33 33 32
23 22 23 24 24 25 25 25 26 27 28 28 28 30 31 31 31 32 33 33 33 33 32 33 33 33 32 32 32 32 31 31 32 32 32 33 33 33 33 32 31 31 30 28
24 23 24 24 24 24 25 25 26 26 26 26 27 28 29 30 30 31 32 32 33 33 33 32 32 32 32 32 31 31 31 31 31 31 32 32 32 31 30 30 29 28 27 27
23 24 24 24 24 24 24 24 25 25 25 26 26 26 27 28 29 29 29 30 30 31 32 32 32 32 31 31 31 31 30 31 31 31 31 31 30 29 29 28 28 27 26 26
23 23 23 23 24 24 23 23 23 24 24 24 24 25 26 26 27 27 27 28 28 29 30 30 30 30 30 30 30 29 30 30 30 30 29 29 28 27 27 26 26 26 26 26
22 22 23 23 24 24 24 23 23 23 24 24 24 25 25 26 26 27 27 27 27 27 28 28 28 28 28 28 28 28 28 28 28 28 28 27 26 26 25 25 24 24 25 26
21 22 22 23 24 25 24 24 23 23 23 23 24 24 24 25 25 26 26 25 25 25 25 26 26 27 27 26 26 26 26 26 26 26 26 25 24 24 24 23 23 23 23 23
20 21 22 22 22 23 23 24 23 23 22 22 22 22 22 22 23 23 24 24 24 24 24 24 25 24 24 24 24 24 24 24 24 24 23 23 22 22 22 22 21 21 21 22
19 20 21 21 21 22 22 24 24 24 23 22 22 21 21 21 21 21 21 22 22 23 23 23 22 22 22 22 22 23 23 23 22 22 21 21 21 21 21 21 21 21 22 23
19 19 20 20 21 21 21 22 23 23 23 23 23 22 21 20 20 20 20 20 20 21 21 21 21 21 21 21 21 21 21 21 20 20 20 20 20 20 20 20 21 21 22 24
19 20 19 19 19 19 20 20 21 22 22 22 22 21 21 20 20 19 19 19 19 20 20 20 20 20 20 21 21 20 20 19 19 19 19 20 20 20 20 21 22 22 23 24
20 20 20 20 19 19 19 20 20 21 21 21 21 21 20 20 20 20 20 19 20 19 19 20 20 20 21 21 21 20 20 19 19 19 20 20 20 20 21 22 22 22 23 24
20 20 20 19 19 19 19 19 20 20 20 20 20 20 20 20 20 19 20 19 19 19 18 18 19 19 20 20 20 20 20 20 21 20 20 20 21 21 22 22 22 22 22 23
20 20 20 19 19 19 19 19 19 19 20 20 19 19 20 20 20 19 19 19 19 19 18 18 18 18 19 19 19 19 20 20 20 21 21 20 20 21 21 21 21 22 22 22
19 19 19 19 19 19 19 18 18 18 19 19 19 19 19 19 19 19 19 19 19 19 19 19 19 19 19 19 19 19 19 19 19 20 20 20 20 20 21 21 21 21 22 22
20 20 20 20 20 20 19 19 19 19 19 19 18 18 18 18 18 18 18 18 18 18 18 18 18 18 19 19 18 18 18 19 19 20 20 20 21 21 21 21 21 21 21 21
19 19 19 19 19 19 19 19 19 19 19 19 19 18 18 18 18 18 18 18 18 17 17 18 17 17 17 17 18 18 18 19 19 20 20 20 20 20 20 20 20 19 19 18
18 18 18 18 18 18 18 18 19 19 19 19 19 19 18 17 17 17 18 18 17 17 17 18 18 18 18 18 18 18 18 19 19 20 20 19 19 19 19 19 18 18 17 15
17 17 17 18 18 18 17 18 18 18 18 18 18 18 18 18 18 18 18 17 17 18 18 18 18 18 18 18 18 18 18 19 19 18 18 17 17 17 17 16 16 15 14 13
Wind_Direction
238 238 238 238 237 236 237 240 242 242 244 244 245 245 247 248 250 252 253 254 256 259 261 262 264 265 267 269 270 272 274 275 276 278 279 280 281 283 284 286 287 288 289 289
241 240 239 238 238 238 239 239 241 241 242 244 245 246 247 249 250 251 252 255 257 259 261 263 266 268 269 270 272 273 274 275 277 278 279 280 282 283 285 286 287 288 289 290
243 242 242 241 239 239 240 240 241 242 243 244 245 247 248 249 248 251 253 255 257 259 262 265 268 270 271 272 273 274 275 276 277 278 280 281 282 284 285 287 288 289 289 290
246 245 246 244 242 242 242 240 240 242 241 242 244 246 248 248 249 250 253 255 257 260 263 266 268 270 272 273 274 275 276 277 278 280 281 282 283 285 286 288 289 289 290 291
247 248 248 246 246 245 244 242 242 243 243 243 245 246 247 248 250 252 254 256 258 261 264 266 269 271 273 275 275 276 277 278 279 280 282 283 284 285 287 288 289 290 291 292
247 246 247 247 248 246 246 245 241 242 244 245 246 247 248 249 250 252 254 257 259 261 264 267 269 271 273 276 277 277 277 278 278 279 281 283 284 287 288 289 290 290 291 292
246 248 250 250 250 247 247 246 244 244 245 246 247 248 249 250 251 253 255 258 259 261 263 266 269 271 274 276 278 278 276 277 278 279 280 282 285 288 289 290 290 290 291 293
247 248 250 249 248 247 247 247 247 247 247 247 248 249 250 251 253 254 255 258 259 261 263 266 270 272 274 276 277 277 278 278 279 281 282 284 286 288 289 290 291 291 292 294
249 251 252 251 249 248 247 247 247 247 247 247 248 249 251 252 253 255 256 258 259 261 263 266 269 272 274 275 276 278 279 280 282 283 285 287 288 289 290 290 291 292 294 296
249 248 249 250 249 248 247 247 247 246 246 246 247 248 251 253 255 257 258 259 260 262 263 266 268 271 274 275 275 276 279 281 283 285 287 289 291 291 290 291 292 293 295 296
246 247 248 248 248 248 250 250 249 247 245 245 246 248 251 253 255 258 260 260 260 262 264 266 268 272 273 274 275 277 278 281 284 286 288 290 291 291 291 292 293 294 295 296
246 247 248 249 249 249 251 251 249 247 246 246 247 249 250 253 256 258 259 260 261 262 263 264 267 270 271 272 274 276 278 280 283 285 288 289 290 291 291 292 292 294 295 298
247 246 247 247 248 249 250 250 248 247 248 249 250 251 251 253 256 258 259 260 261 262 262 263 266 269 271 273 275 277 279 281 282 285 287 289 290 290 291 293 295 295 296 298
245 245 246 247 249 249 249 248 248 248 249 251 253 254 254 255 257 259 259 260 262 263 263 264 267 269 271 274 276 277 279 280 282 284 286 287 289 290 292 294 296 297 298 300
247 247 249 250 251 250 249 248 249 250 251 252 254 255 256 257 257 258 259 259 261 263 265 266 267 269 271 274 276 278 279 281 283 285 286 286 287 289 291 294 296 297 299 300
248 249 251 251 250 250 249 248 249 251 253 255 255 256 257 257 258 258 258 259 261 263 266 268 268 269 270 273 276 279 281 283 284 285 286 287 287 289 291 293 297 299 301 302
251 253 253 251 249 249 250 250 251 252 253 255 256 257 258 258 258 258 260 261 262 265 267 268 268 269 271 274 278 281 282 283 284 285 285 286 288 290 290 293 295 298 301 304
252 253 254 253 250 251 252 253 253 253 254 255 256 256 256 256 257 258 260 262 263 265 266 266 267 270 273 277 279 282 283 284 283 282 284 287 289 290 291 294 296 299 302 305
254 255 255 255 253 253 254 254 254 253 254 256 256 255 254 255 255 256 257 259 263 264 264 265 267 270 274 277 279 280 282 283 283 283 286 288 289 291 293 296 299 302 304 306
253 254 254 255 255 255 257 255 253 253 253 254 255 255 254 254 254 255 257 260 263 265 266 267 269 271 273 275 277 279 281 284 285 286 288 288 290 292 294 297 299 301 303 306
252 251 251 253 254 256 256 254 252 251 252 253 254 253 253 253 254 256 257 260 262 264 266 269 271 274 274 276 277 279 281 284 287 289 288 288 289 290 292 295 298 301 305 307
249 248 249 251 253 254 254 252 250 249 250 251 251 251 252 254 255 256 256 258 259 262 265 269 273 275 276 277 278 279 281 284 285 286 287 289 290 291 293 296 299 302 305 306
248 248 249 250 251 251 252 252 251 250 250 249 249 251 253 253 254 254 255 257 260 263 265 268 272 275 277 278 279 280 282 283 285 287 289 291 293 294 295 297 299 302 304 304
249 250 249 249 248 249 251 253 253 252 250 250 251 252 254 253 254 254 254 256 260 264 266 267 270 274 277 279 280 281 283 284 286 287 290 292 293 294 296 299 301 303 304 304
251 251 250 248 248 249 251 252 252 252 251 251 253 254 256 256 256 255 256 259 261 264 266 268 272 274 277 280 283 284 284 284 286 288 290 292 294 296 298 300 302 303 304 304
250 250 249 248 248 250 251 251 251 252 252 252 252 254 255 256 256 258 258 258 260 264 268 271 273 275 278 282 284 285 286 287 289 289 290 292 295 297 300 301 300 301 301 302
248 247 247 247 249 251 251 251 252 253 253 251 250 252 252 255 257 258 257 258 260 263 267 270 273 276 279 281 283 285 288 290 290 290 290 293 295 298 302 302 301 300 299 298
Height
5547 5552 5555 5559 5563 5566 5570 5574 5579 5584 5587 5591 5594 5597 5600 5603 5605 5608 5610 5613 5615 5616 5617 5618 5619 5619 5619 5618 5618 5617 5616 5615 5613 5612 5610 5608 5606 5604 5601 5599 5597 5594 5592 5589
5540 5543 5546 5550 5554 5558 5562 5566 5570 5575 5579 5582 5585 5589 5592 5594 5597 5599 5602 5604 5606 5607 5608 5609 5609 5610 5609 5608 5608 5607 5605 5604 5603 5601 5599 5597 5595 5593 5590 5588 5586 5583 5580 5578
5532 5536 5537 5542 5547 5551 5555 5559 5563 5566 5572 5574 5577 5580 5583 5586 5588 5590 5593 5595 5597 5598 5599 5600 5600 5600 5599 5599 5598 5596 5595 5594 5592 5591 5589 5587 5585 5582 5580 5577 5575 5572 5570 5567
5525 5528 5530 5538 5540 5543 5546 5550 5554 5558 5562 5565 5568 5571 5573 5576 5579 5582 5584 5586 5588 5589 5590 5590 5590 5590 5590 5589 5588 5586 5585 5584 5582 5580 5579 5576 5574 5572 5569 5567 5564 5562 5559 5557
5518 5520 5524 5529 5532 5535 5538 5542 5546 5549 5553 5556 5559 5562 5565 5568 5570 5573 5575 5577 5578 5580 5580 5581 5581 5581 5580 5579 5578 5577 5575 5574 5572 5570 5568 5566 5564 5561 5559 5557 5554 5552 5549 5547
5512 5514 5518 5523 5526 5527 5531 5533 5537 5540 5544 5547 5550 5554 5558 5560 5562 5564 5566 5568 5569 5570 5571 5572 5572 5571 5571 5570 5568 5567 5565 5564 5562 5561 5559 5557 5554 5552 5549 5547 5545 5542 5540 5537
5506 5508 5511 5515 5517 5520 5525 5528 5530 5532 5536 5539 5542 5546 5549 5550 5552 5554 5556 5558 5560 5561 5562 5562 5562 5562 5561 5560 5559 5557 5556 5555 5553 5551 5549 5547 5545 5543 5540 5537 5535 5533 5531 5528
5501 5503 5507 5508 5511 5514 5517 5519 5522 5524 5527 5531 5533 5536 5539 5541 5543 5546 5548 5549 5550 5551 5553 5553 5553 5553 5552 5551 5549 5548 5547 5545 5544 5542 5540 5538 5536 5534 5531 5529 5527 5524 5522 5520
5496 5500 5500 5502 5504 5507 5509 5512 5514 5517 5520 5522 5525 5528 5530 5533 5535 5537 5538 5540 5541 5542 5543 5543 5543 5543 5542 5542 5540 5539 5538 5537 5535 5533 5531 5530 5528 5525 5523 5520 5518 5516 5514 5512
5490 5492 5494 5496 5498 5500 5502 5505 5507 5510 5512 5514 5517 5520 5522 5524 5526 5528 5529 5530 5532 5533 5534 5534 5534 5534 5533 5532 5531 5531 5530 5528 5527 5525 5523 5521 5519 5517 5515 5512 5510 5508 5506 5504
5484 5486 5488 5490 5492 5494 5496 5498 5500 5502 5505 5507 5509 5512 5514 5515 5517 5519 5520 5521 5522 5523 5524 5525 5525 5525 5524 5523 5523 5522 5521 5520 5519 5517 5515 5513 5511 5509 5507 5505 5502 5501 5499 5497
5478 5481 5482 5485 5486 5488 5490 5492 5494 5496 5498 5500 5502 5504 5506 5507 5509 5510 5511 5512 5513 5514 5515 5516 5516 5516 5515 5515 5514 5514 5513 5512 5510 5509 5507 5506 5503 5502 5499 5497 5495 5493 5491 5490
5472 5474 5476 5478 5480 5482 5484 5485 5487 5489 5491 5493 5495 5496 5498 5500 5501 5502 5503 5504 5505 5505 5506 5507 5507 5507 5506 5506 5506 5505 5504 5503 5502 5501 5499 5498 5496 5494 5493 5491 5489 5487 5485 5483
5466 5468 5470 5472 5474 5476 5477 5479 5481 5483 5484 5486 5488 5489 5490 5492 5493 5494 5495 5496 5497 5497 5498 5498 5498 5498 5498 5498 5497 5497 5496 5495 5494 5493 5491 5490 5488 5487 5486 5485 5483 5481 5479 5476
5461 5463 5465 5466 5468 5469 5471 5473 5475 5476 5478 5479 5481 5482 5483 5484 5486 5487 5487 5488 5489 5489 5490 5490 5490 5490 5490 5490 5489 5489 5488 5487 5486 5485 5484 5482 5481 5480 5479 5478 5476 5475 5473 5471
5456 5457 5459 5460 5462 5463 5465 5467 5468 5470 5471 5473 5474 5475 5476 5477 5478 5479 5480 5481 5482 5482 5483 5483 5482 5482 5482 5482 5482 5481 5480 5479 5478 5478 5477 5476 5475 5474 5473 5472 5470 5469 5467 5465
5450 5452 5453 5455 5456 5457 5459 5460 5462 5463 5465 5466 5467 5468 5470 5471 5472 5473 5474 5475 5475 5475 5476 5476 5476 5476 5476 5476 5475 5475 5474 5473 5472 5471 5470 5470 5469 5468 5467 5466 5465 5463 5461 5459
5445 5446 5447 5448 5450 5451 5452 5454 5455 5456 5458 5459 5460 5462 5463 5464 5465 5467 5467 5468 5469 5469 5469 5469 5470 5470 5470 5470 5469 5469 5468 5467 5466 5466 5465 5464 5464 5463 5462 5460 5459 5458 5456 5453
5440 5441 5442 5443 5444 5445 5446 5447 5448 5450 5451 5453 5454 5455 5456 5458 5459 5460 5461 5462 5463 5463 5463 5463 5464 5464 5464 5464 5463 5463 5462 5462 5461 5460 5460 5459 5458 5457 5456 5455 5453 5451 5449 5447
5434 5435 5436 5437 5438 5439 5440 5441 5442 5444 5445 5447 5448 5449 5450 5452 5453 5454 5455 5456 5457 5457 5457 5458 5458 5458 5458 5457 5457 5457 5457 5456 5456 5455 5454 5453 5452 5451 5450 5449 5447 5445 5443 5441
5428 5429 5431 5432 5433 5434 5435 5436 5437 5438 5439 5441 5442 5443 5444 5446 5447 5448 5449 5450 5451 5451 5451 5452 5452 5452 5452 5451 5451 5451 5451 5450 5450 5449 5448 5447 5446 5445 5444 5442 5441 5439 5437 5435
5422 5424 5425 5426 5427 5428 5429 5430 5431 5433 5434 5435 5437 5438 5439 5440 5441 5442 5443 5444 5445 5445 5446 5446 5446 5446 5446 5446 5445 5445 5445 5444 5444 5443 5442 5441 5440 5439 5438 5436 5434 5433 5430 5428
5417 5418 5420 5421 5422 5423 5424 5425 5427 5428 5429 5430 5431 5432 5433 5434 5435 5436 5438 5438 5439 5440 5440 5441 5441 5440 5440 5440 5440 5439 5439 5439 5438 5437 5436 5435 5434 5433 5432 5430 5428 5426 5424 5422
5412 5413 5414 5415 5417 5418 5419 5420 5421 5422 5423 5425 5426 5427 5428 5429 5430 5431 5432 5433 5434 5434 5435 5435 5435 5435 5435 5434 5434 5434 5433 5433 5432 5431 5430 5429 5428 5426 5425 5423 5422 5420 5418 5416
5407 5408 5409 5410 5411 5413 5414 5415 5416 5417 5418 5419 5421 5422 5422 5423 5424 5425 5426 5427 5428 5429 5429 5429 5430 5429 5429 5429 5429 5428 5427 5427 5426 5425 5424 5423 5421 5420 5418 5417 5415 5414 5412 5410
5401 5403 5404 5405 5406 5408 5409 5410 5411 5412 5413 5414 5415 5416 5417 5418 5419 5420 5421 5422 5422 5423 5424 5424 5424 5424 5424 5423 5423 5422 5422 5421 5420 5419 5418 5416 5415 5414 5412 5411 5409 5408 5406 5405
5397 5398 5399 5400 5401 5402 5404 5405 5406 5406 5407 5409 5410 5411 5412 5413 5414 5414 5415 5416 5417 5417 5418 5418 5418 5418 5418 5417 5417 5416 5416 5415 5414 5413 5412 5410 5409 5408 5407 5405 5404 5402 5401 5401